KJ4EBE Weather Reports


time (UTC)temp
F
wind
direction
speed
knots
gust
knots
rain 1hr
in
rain 24hr
in
rain mn
in
humidity
%
barometer
mb
20260509185912 90 282 1.7 4.3 0.00 0.00 0.00 52 1010.3
20260509185409 89 266 2.6 2.6 0.00 0.00 0.00 53 1010.4
20260509184905 89 257 0.0 3.5 0.00 0.00 0.00 54 1010.5
20260509184402 89 112 1.7 2.6 0.00 0.00 0.00 57 1010.2
20260509183900 88 201 0.0 2.6 0.00 0.00 0.00 57 1010.8
20260509183354 87 319 1.7 1.7 0.00 0.00 0.00 56 1010.7
20260509182850 86 66 2.6 2.6 0.00 0.00 0.00 59 1010.8
20260509182347 86 75 0.0 1.7 0.00 0.00 0.00 57 1010.9
20260509181845 88 119 0.0 1.7 0.00 0.00 0.00 58 1010.9
20260509181342 88 119 0.0 1.7 0.00 0.00 0.00 58 1011.1
20260509180839 87 72 0.0 1.7 0.00 0.00 0.00 57 1011.1
20260509180335 88 93 0.0 2.6 0.00 0.00 0.00 57 1011.1
20260509175832 87 67 0.9 1.7 0.00 0.00 0.00 58 1011.4
20260509175328 87 99 0.0 2.6 0.00 0.00 0.00 56 1011.1
20260509174824 88 136 1.7 1.7 0.00 0.00 0.00 59 1011.0
20260509174320 88 75 0.0 0.9 0.00 0.00 0.00 62 1011.3
20260509173816 86 341 0.0 1.7 0.00 0.00 0.00 62 1011.3
20260509173312 87 278 0.0 0.9 0.00 0.00 0.00 62 1011.5
20260509172808 86 185 0.0 0.0 0.00 0.00 0.00 63 1011.5
20260509172306 85 253 0.0 1.7 0.00 0.00 0.00 61 1011.5
20260509171800 85 129 0.0 1.7 0.00 0.00 0.00 60 1011.5
20260509171251 86 122 0.9 1.7 0.00 0.00 0.00 57 1011.5
20260509170747 86 89 0.0 0.9 0.00 0.00 0.00 59 1011.6
20260509170244 86 257 0.0 0.9 0.00 0.00 0.00 62 1011.8
20260509165742 86 188 1.7 2.6 0.00 0.00 0.00 60 1011.6
20260509165238 84 96 0.0 0.0 0.00 0.00 0.00 63 1011.8
20260509164734 85 240 0.0 1.7 0.00 0.00 0.00 62 1011.7
20260509164230 86 54 0.0 1.7 0.00 0.00 0.00 64 1011.8
20260509163727 84 165 0.0 3.5 0.00 0.00 0.00 64 1011.5
20260509163223 84 82 0.9 3.5 0.00 0.00 0.00 66 1011.7
20260509162721 83 119 0.0 1.7 0.00 0.00 0.00 66 1011.4
20260509162216 84 102 3.5 3.5 0.00 0.00 0.00 63 1011.3
20260509161712 85 50 0.9 1.7 0.00 0.00 0.00 62 1011.5
20260509161209 85 89 0.0 1.7 0.00 0.00 0.00 67 1011.3
20260509160704 83 94 1.7 2.6 0.00 0.00 0.00 67 1011.3
20260509160200 84 89 0.0 2.6 0.00 0.00 0.00 66 1011.5
20260509155655 84 88 1.7 1.7 0.00 0.00 0.00 70 1011.8
20260509155152 83 7 1.7 3.5 0.00 0.00 0.00 68 1011.6
20260509154648 83 148 0.0 2.6 0.00 0.00 0.00 68 1011.4
20260509154145 84 117 0.0 1.7 0.00 0.00 0.00 70 1011.6
20260509153642 84 212 0.0 1.7 0.00 0.00 0.00 71 1011.5
20260509153139 84 65 0.0 1.7 0.00 0.00 0.00 76 1011.5
20260509152634 83 104 0.0 0.0 0.00 0.00 0.00 74 1011.5
20260509152132 82 48 0.0 1.7 0.00 0.00 0.00 75 1011.4
20260509151628 81 146 0.0 0.9 0.00 0.00 0.00 79 1011.5
20260509151126 80 73 0.9 2.6 0.00 0.00 0.00 78 1011.5
20260509150624 82 15 0.0 1.7 0.00 0.00 0.00 78 1011.1
20260509150122 82 96 0.9 1.7 0.00 0.00 0.00 76 1011.5
20260509145618 82 89 0.0 1.7 0.00 0.00 0.00 78 1011.4
20260509145113 81 93 1.7 1.7 0.00 0.00 0.00 78 1011.4
20260509144610 78 359 0.9 0.9 0.00 0.00 0.00 82 1011.1
20260509144107 78 359 0.9 0.9 0.00 0.00 0.00 82 1010.9
20260509143604 80 102 0.0 0.9 0.00 0.00 0.00 83 1010.9
20260509143102 78 34 0.0 0.0 0.00 0.00 0.00 85 1010.5
20260509142602 78 25 0.0 0.0 0.00 0.00 0.00 84 1010.4
20260509142058 76 322 0.0 0.0 0.00 0.00 0.00 90 1010.5
20260509141554 74 304 0.0 0.0 0.00 0.00 0.00 91 1010.5
20260509141051 75 92 0.9 1.7 0.00 0.00 0.00 89 1010.7
20260509140548 75 2 0.0 1.7 0.00 0.00 0.00 89 1010.3
20260509140046 75 106 0.0 2.6 0.00 0.00 0.00 88 1010.4
20260509135543 76 31 0.0 1.7 0.00 0.00 0.00 87 1010.7
20260509135042 75 83 0.9 2.6 0.00 0.00 0.00 91 1010.6
20260509134538 71 105 0.9 4.3 0.00 0.00 0.00 99 1010.0
20260509134036 71 271 1.7 2.6 0.00 0.00 0.00 99 1009.8
20260509133532 70 191 1.7 1.7 0.00 0.00 0.00 99 1009.7
20260509133030 69 250 2.6 3.5 0.00 0.00 0.00 99 1009.6
20260509132528 69 237 0.9 2.6 0.00 0.00 0.00 99 1009.5
20260509132026 69 237 0.9 3.5 0.00 0.00 0.00 99 1009.8
20260509131521 68 240 0.0 0.9 0.00 0.00 0.00 99 1009.7
20260509131019 68 295 0.9 1.7 0.00 0.00 0.00 99 1009.9
20260509130514 68 44 0.0 1.7 0.00 0.00 0.00 99 1009.8
20260509130011 68 86 1.7 1.7 0.00 0.00 0.00 99 1009.5
20260509125508 68 209 0.9 2.6 0.00 0.00 0.00 99 1009.2
20260509125004 68 93 1.7 3.5 0.00 0.00 0.00 99 1009.4
20260509124501 67 211 0.9 1.7 0.00 0.00 0.00 99 1009.4
20260509123958 67 237 3.5 3.5 0.00 0.00 0.00 99 1009.5
20260509123456 67 188 0.9 4.3 0.00 0.00 0.00 99 1009.3
20260509122951 67 55 0.0 2.6 0.00 0.00 0.00 99 1009.3
20260509122448 66 0 0.0 1.7 0.00 0.00 0.00 99 1009.1
20260509121945 66 18 0.0 1.7 0.00 0.00 0.00 99 1009.2
20260509121442 66 91 2.6 2.6 0.00 0.00 0.00 99 1009.2
20260509120940 66 224 0.0 2.6 0.00 0.00 0.00 99 1009.5
20260509120438 66 193 0.0 1.7 0.00 0.00 0.00 99 1009.2
20260509115935 66 342 0.0 1.7 0.00 0.00 0.00 99 1009.3
20260509115432 66 357 0.0 1.7 0.02 0.00 0.00 99 1009.5
20260509114929 66 69 1.7 1.7 0.02 0.00 0.00 99 1009.4
20260509114428 65 56 0.0 1.7 0.00 0.00 0.00 99 1009.3
20260509113928 65 32 0.0 1.7 0.00 0.00 0.00 99 1009.7
20260509113424 66 169 0.0 1.7 0.00 0.00 0.00 99 1009.8
20260509112921 66 2 0.9 1.7 0.00 0.00 0.00 99 1010.1
20260509112418 66 25 0.0 2.6 0.00 0.00 0.00 99 1010.0
20260509111915 66 189 0.9 1.7 0.00 0.00 0.00 99 1010.2
20260509111412 66 224 0.9 1.7 0.00 0.00 0.00 99 1010.5
20260509110910 66 287 0.9 1.7 0.00 0.00 0.00 99 1010.8
20260509110400 66 131 0.9 1.7 0.00 0.00 0.00 99 1010.9
20260509105859 66 21 0.0 1.7 0.00 0.00 0.00 99 1011.1
20260509105356 66 77 0.0 1.7 0.00 0.00 0.00 99 1011.5
20260509104852 66 191 0.0 1.7 0.00 0.00 0.00 99 1011.8
20260509104349 67 285 0.9 0.9 0.00 0.00 0.00 99 1012.3
20260509103847 67 45 0.9 1.7 0.00 0.00 0.00 99 1012.5
20260509103344 66 32 0.9 1.7 0.00 0.00 0.00 99 1012.6
20260509102843 66 46 1.7 1.7 0.00 0.00 0.00 99 1012.7
20260509102340 66 10 0.9 1.7 0.00 0.00 0.00 99 1012.4
20260509101835 66 49 2.6 2.6 0.00 0.00 0.00 99 1012.4
20260509101332 66 55 2.6 2.6 0.00 0.00 0.00 99 1012.3
20260509100830 66 0 0.0 2.6 0.00 0.00 0.00 99 1012.1
20260509100327 66 335 0.0 1.7 0.00 0.00 0.00 99 1012.0
20260509095824 66 50 0.0 1.7 0.00 0.00 0.00 99 1012.1
20260509095321 66 72 0.9 1.7 0.00 0.00 0.00 99 1011.6
20260509094818 66 2 0.9 1.7 0.00 0.00 0.00 99 1011.3
20260509094315 65 37 0.0 1.7 0.00 0.00 0.00 99 1011.4
20260509093812 65 35 0.0 1.7 0.00 0.00 0.00 99 1011.0
20260509093309 65 42 1.7 1.7 0.00 0.00 0.00 99 1011.1
20260509092808 65 336 0.0 0.9 0.00 0.00 0.00 99 1010.9
20260509092306 65 37 0.9 0.9 0.00 0.00 0.00 99 1011.1
20260509091803 65 357 0.0 1.7 0.00 0.00 0.00 99 1010.9
20260509091300 65 20 0.0 0.9 0.00 0.00 0.00 99 1011.0
20260509090757 66 33 0.9 1.7 0.00 0.00 0.00 99 1011.0
20260509090254 66 7 0.0 1.7 0.00 0.00 0.00 99 1010.9
20260509085752 66 27 0.0 1.7 0.00 0.00 0.00 99 1011.0
20260509085249 66 30 0.0 1.7 0.00 0.00 0.00 99 1011.3
20260509084745 66 7 0.9 1.7 0.00 0.00 0.00 99 1011.1
20260509084242 66 356 0.9 1.7 0.00 0.00 0.00 99 1011.3
20260509083740 66 84 0.9 1.7 0.00 0.00 0.00 99 1010.9
20260509083237 66 32 0.0 0.9 0.00 0.00 0.00 99 1010.5
20260509082733 66 40 0.0 1.7 0.00 0.00 0.00 99 1010.2
20260509082230 66 24 0.0 1.7 0.00 0.00 0.00 99 1010.1
20260509081727 66 341 0.0 1.7 0.00 0.00 0.00 99 1010.1
20260509081224 66 31 0.9 0.9 0.00 0.00 0.00 99 1010.4
20260509080722 67 49 0.0 1.7 0.00 0.00 0.00 99 1010.6
20260509080220 67 217 0.0 1.7 0.00 0.00 0.00 99 1010.8
20260509075718 67 45 0.0 0.9 0.00 0.00 0.00 99 1011.4
20260509075215 68 23 0.9 0.9 0.00 0.00 0.00 99 1011.0
20260509074712 68 63 0.0 1.7 0.00 0.00 0.00 99 1011.0
20260509074210 68 50 0.9 0.9 0.00 0.00 0.00 99 1011.3
20260509073705 67 44 0.0 0.0 0.00 0.00 0.00 99 1011.3
20260509073202 67 44 0.0 0.0 0.00 0.00 0.00 99 1011.0
20260509072659 67 50 0.0 1.7 0.00 0.00 0.00 99 1010.8
20260509072155 67 3 0.0 0.9 0.00 0.00 0.00 99 1010.7
20260509071651 67 29 0.0 0.9 0.00 0.00 0.00 99 1010.7
20260509071149 68 333 0.0 0.0 0.00 0.00 0.00 99 1010.7
20260509070645 68 319 0.0 0.9 0.00 0.00 0.00 99 1010.8
20260509070142 68 155 0.0 0.9 0.00 0.00 0.00 99 1010.9
20260509065638 68 70 0.9 0.9 0.00 0.00 0.00 99 1010.7
20260509065135 69 35 0.0 1.7 0.00 0.00 0.00 99 1011.1
20260509064632 69 217 0.0 0.9 0.00 0.00 0.00 99 1010.9
20260509064130 69 16 0.0 1.7 0.00 0.00 0.00 99 1011.1
20260509063626 68 6 0.9 1.7 0.00 0.00 0.00 99 1011.0
20260509063123 68 22 0.0 1.7 0.00 0.00 0.00 99 1011.4
20260509062620 68 46 0.0 1.7 0.00 0.00 0.00 99 1011.3
20260509062116 68 50 0.0 0.9 0.00 0.00 0.00 99 1011.0
20260509061613 68 4 0.0 0.9 0.00 0.00 0.00 99 1010.9
20260509061111 67 322 0.0 0.9 0.00 0.00 0.00 99 1011.0
20260509060608 67 43 0.0 0.9 0.00 0.00 0.00 99 1010.8
20260509060104 67 32 0.0 1.7 0.00 0.00 0.00 99 1011.0
20260509055559 67 32 0.9 1.7 0.00 0.00 0.00 99 1010.6
20260509055055 67 302 0.0 1.7 0.00 0.00 0.00 99 1010.7
20260509054552 67 26 0.9 1.7 0.00 0.00 0.00 99 1010.5
20260509054050 67 13 0.0 0.9 0.00 0.00 0.00 99 1010.5
20260509053549 67 3 0.0 1.7 0.00 0.00 0.00 99 1010.6
20260509053045 67 22 0.0 1.7 0.00 0.00 0.00 99 1010.5
20260509052543 67 37 0.0 0.9 0.00 0.00 0.00 99 1010.4
20260509052041 67 51 0.9 1.7 0.00 0.00 0.00 99 1010.3
20260509051538 66 335 0.0 1.7 0.00 0.00 0.00 99 1010.2
20260509051035 66 31 0.0 1.7 0.00 0.00 0.00 99 1010.3
20260509050532 66 42 0.0 1.7 0.00 0.00 0.00 99 1010.2
20260509050028 66 359 0.0 0.9 0.00 0.00 0.00 99 1010.0
20260509045526 66 13 0.0 1.7 0.00 0.00 0.00 99 1009.8
20260509045023 67 26 1.7 1.7 0.00 0.00 0.00 99 1010.0
20260509044521 67 36 0.0 0.9 0.00 0.00 0.00 99 1010.2
20260509044019 67 346 0.0 1.7 0.00 0.00 0.00 99 1010.3
20260509043514 67 48 0.0 1.7 0.00 0.00 0.00 99 1010.1
20260509043004 67 8 0.0 1.7 0.00 0.00 0.00 99 1010.1
20260509042500 67 34 0.0 0.9 0.00 0.00 0.00 99 1010.1
20260509041956 67 18 0.0 0.9 0.00 0.00 0.00 99 1010.1
20260509041453 67 84 0.0 0.9 0.00 0.00 0.00 99 1010.0
20260509040952 66 23 0.9 0.9 0.00 0.00 0.00 99 1010.2
20260509040449 66 59 0.0 1.7 0.00 0.00 0.00 99 1010.1
20260509035946 67 51 0.0 1.7 0.00 0.00 0.00 99 1010.0
20260509035442 66 32 0.0 0.9 0.00 0.00 0.00 99 1010.0
20260509034939 67 14 0.9 0.9 0.00 0.00 0.00 99 1009.8
20260509034437 67 35 0.0 1.7 0.00 0.00 0.00 99 1009.8
20260509033934 66 36 0.0 0.9 0.00 0.00 0.00 99 1009.7
20260509033431 66 351 0.0 1.7 0.00 0.00 0.00 99 1009.7
20260509032927 66 347 0.0 0.9 0.00 0.00 0.00 99 1009.4
20260509032425 66 326 0.0 1.7 0.00 0.00 0.00 99 1009.6
20260509031923 66 17 0.9 1.7 0.00 0.00 0.00 99 1009.7
20260509031420 67 359 0.0 0.9 0.00 0.00 0.00 99 1009.7
20260509030917 67 44 1.7 1.7 0.00 0.00 0.00 99 1009.5
20260509030415 67 354 0.0 0.9 0.00 0.00 0.00 99 1009.3
20260509025912 67 164 0.0 0.9 0.00 0.00 0.00 99 1009.5
20260509025407 67 66 0.0 0.9 0.00 0.00 0.00 98 1009.2
20260509024903 68 321 0.0 0.9 0.00 0.00 0.00 98 1009.0
20260509024359 68 322 0.9 1.7 0.00 0.00 0.00 98 1008.9
20260509023856 67 330 0.0 0.9 0.00 0.00 0.00 98 1009.0
20260509023354 67 55 0.0 0.9 0.00 0.00 0.00 98 1009.1
20260509022850 67 27 0.9 1.7 0.00 0.00 0.00 98 1009.1
20260509022347 68 44 0.0 1.7 0.00 0.00 0.00 97 1009.1
20260509021844 68 29 0.0 0.9 0.00 0.00 0.00 97 1009.1
20260509021341 68 29 0.0 1.7 0.00 0.00 0.00 97 1009.1
20260509020839 68 33 0.0 0.9 0.00 0.00 0.00 96 1009.0
20260509020337 68 19 0.0 1.7 0.00 0.00 0.00 96 1009.1
20260509015834 68 35 0.0 1.7 0.00 0.00 0.00 96 1009.0
20260509015332 69 38 0.0 0.9 0.00 0.00 0.00 95 1008.8
20260509014828 69 65 0.0 1.7 0.00 0.00 0.00 95 1009.0
20260509014325 69 35 0.0 1.7 0.00 0.00 0.00 95 1008.8
20260509013822 69 2 1.7 1.7 0.00 0.00 0.00 94 1008.9
20260509013318 69 13 0.0 1.7 0.00 0.00 0.00 94 1008.8
20260509012815 70 12 0.0 0.9 0.00 0.00 0.00 94 1008.8
20260509012311 70 198 0.0 1.7 0.00 0.00 0.00 94 1008.9
20260509011809 70 50 0.0 0.9 0.00 0.00 0.00 94 1009.0
20260509011306 70 32 0.0 1.7 0.00 0.00 0.00 93 1008.7
20260509010804 70 28 1.7 1.7 0.00 0.00 0.00 93 1008.9
20260509010300 71 38 0.0 0.9 0.00 0.00 0.00 92 1008.7
20260509005758 71 31 0.0 0.9 0.00 0.00 0.00 92 1008.9
20260509005256 71 66 0.0 0.0 0.00 0.00 0.00 91 1008.8
20260509004750 71 124 0.0 0.9 0.00 0.00 0.00 91 1008.8
20260509004247 72 112 0.9 0.9 0.00 0.00 0.00 90 1008.7
20260509003745 72 233 0.0 0.9 0.00 0.00 0.00 90 1008.4
20260509003242 72 63 0.0 1.7 0.00 0.00 0.00 89 1008.6
20260509002740 72 96 0.0 2.6 0.00 0.00 0.00 88 1008.7
20260509002237 73 124 0.0 0.9 0.00 0.00 0.00 87 1008.6
20260509001734 73 173 0.9 1.7 0.00 0.00 0.00 87 1008.8
20260509001230 73 318 0.0 1.7 0.00 0.00 0.00 87 1008.7
20260509000728 73 53 0.9 1.7 0.00 0.00 0.00 88 1008.6
20260509000226 72 129 0.0 1.7 0.00 0.00 0.00 88 1008.7
20260508235722 72 76 0.0 2.6 0.00 0.00 0.00 88 1008.6
20260508235218 72 336 0.0 1.7 0.00 0.00 0.00 88 1008.8
20260508234710 72 43 0.0 0.9 0.00 0.00 0.00 88 1008.8
20260508234206 72 89 0.0 0.9 0.00 0.00 0.00 88 1008.9
20260508233706 72 195 0.9 1.7 0.00 0.00 0.00 87 1008.8
20260508233203 72 249 0.9 0.9 0.00 0.00 0.00 87 1009.0
20260508232700 72 113 0.0 0.9 0.00 0.00 0.00 87 1008.8
20260508232156 72 37 0.0 2.6 0.00 0.00 0.00 87 1008.9
20260508231655 72 151 0.0 1.7 0.00 0.00 0.00 86 1008.9
20260508231151 72 63 0.0 3.5 0.00 0.00 0.00 87 1008.9
20260508230648 72 15 0.0 1.7 0.00 0.00 0.00 86 1008.8
20260508230144 73 306 0.0 1.7 0.00 0.00 0.00 86 1008.8
20260508225642 73 156 0.0 1.7 0.00 0.00 0.00 85 1009.0
20260508225138 73 35 0.0 1.7 0.00 0.00 0.00 85 1009.0
20260508224636 73 72 0.0 0.9 0.00 0.00 0.00 85 1008.9
20260508224134 73 57 0.0 1.7 0.00 0.00 0.00 85 1008.7
20260508223631 73 169 0.0 2.6 0.00 0.00 0.00 85 1008.7
20260508223128 73 126 0.9 2.6 0.00 0.00 0.00 86 1008.8
20260508222626 73 143 0.9 0.9 0.00 0.00 0.00 85 1009.0
20260508222122 73 221 0.9 2.6 0.00 0.00 0.00 85 1009.1
20260508221618 74 48 1.7 1.7 0.00 0.00 0.00 84 1009.1
20260508221114 74 32 1.7 1.7 0.00 0.00 0.00 83 1009.2
20260508220611 74 322 0.0 2.6 0.00 0.00 0.00 83 1009.2
20260508220108 74 110 0.0 1.7 0.00 0.00 0.00 83 1009.1
20260508215604 74 120 0.9 1.7 0.00 0.00 0.00 82 1009.3
20260508215101 75 77 0.0 2.6 0.00 0.00 0.00 82 1009.4
20260508214559 74 57 0.0 0.9 0.00 0.00 0.00 83 1009.1
20260508214055 74 193 1.7 2.6 0.00 0.00 0.00 82 1009.5
20260508213552 74 166 0.0 1.7 0.00 0.00 0.00 83 1009.5
20260508213048 73 111 0.9 1.7 0.00 0.00 0.00 84 1009.5
20260508212545 74 39 2.6 2.6 0.00 0.00 0.00 82 1009.8
20260508212041 75 89 0.0 1.7 0.00 0.00 0.00 80 1009.8
20260508211537 77 65 0.0 1.7 0.00 0.00 0.00 78 1009.7
20260508211033 77 220 1.7 2.6 0.00 0.00 0.00 77 1009.6
20260508210530 75 119 0.9 0.9 0.00 0.00 0.00 81 1009.9
20260508210028 76 209 0.0 1.7 0.00 0.00 0.00 79 1009.8
20260508205524 75 34 0.0 0.9 0.00 0.00 0.00 81 1009.9
20260508205020 74 35 0.0 1.7 0.00 0.00 0.00 84 1010.1
20260508204518 74 154 0.9 0.9 0.00 0.00 0.00 83 1010.2
20260508204013 73 129 0.0 1.7 0.00 0.00 0.00 82 1010.2
20260508203509 74 50 0.0 1.7 0.00 0.00 0.00 83 1010.4
20260508203005 74 117 0.0 2.6 0.00 0.00 0.00 82 1010.4
20260508202502 73 76 0.0 1.7 0.00 0.00 0.00 82 1010.3
20260508201959 74 116 0.9 2.6 0.00 0.00 0.00 81 1010.3
20260508201456 75 179 0.0 2.6 0.00 0.00 0.00 80 1010.4
20260508200952 75 53 0.0 1.7 0.00 0.00 0.00 79 1010.3
20260508200450 75 205 0.9 1.7 0.00 0.00 0.00 78 1010.6
20260508195944 75 117 0.0 1.7 0.00 0.00 0.00 80 1010.6
20260508195442 75 153 0.0 2.6 0.00 0.00 0.00 81 1010.6
20260508194938 75 53 0.9 1.7 0.00 0.00 0.00 81 1010.6
20260508194435 74 75 0.9 0.9 0.00 0.00 0.00 83 1010.9
20260508193932 73 52 0.0 1.7 0.00 0.00 0.00 82 1010.9
20260508193430 74 322 0.0 0.0 0.00 0.00 0.00 81 1010.8
20260508192925 74 227 0.0 2.6 0.00 0.00 0.00 81 1011.0
20260508192423 74 150 0.0 1.7 0.00 0.00 0.00 80 1011.1
20260508191919 73 107 0.0 1.7 0.00 0.00 0.00 82 1010.9
20260508191417 73 116 0.9 3.5 0.00 0.00 0.00 81 1010.9
20260508190914 73 310 1.7 1.7 0.00 0.00 0.00 80 1011.1
20260508190411 74 32 0.0 1.7 0.00 0.00 0.00 81 1011.1